Tracking 28327 objects as of 1-Dec-2023
HD Live streaming from Space Station
objects crossing your sky now

COSMOS 1275 DEB

Track COSMOS 1275 DEB now!
10-day predictions


NORAD ID: 12671
Int'l Code: 1981-053AB
Perigee: 868.2 km
Apogee: 891.5 km
Inclination: 82.9 °
Period: 102.4 minutes
Semi major axis: 7250 km
RCS: 0.0812 m2 (small)
Launch date: June 4, 1981
Source: Commonwealth of Independent States (former USSR) (CIS)
Launch site: PLESETSK MISSILE AND SPACE COMPLEX (PKMTR)

Note: This is SATELLITE DEBRIS
Your satellite tracking list
Your tracking list is empty




NASA's NSSDC Master Catalog

Two Line Element Set (TLE):
1 12671U 81053AB  23335.07164186  .00002726  00000-0  16483-2 0  9994
2 12671  82.9127 201.7627 0016047 124.1502 236.1196 14.06117645149249
Source of the keplerian elements: AFSPC